Vertical_Velocity
1 3 -11 -4 -7 -2 -6 -3 -6 1 8 -2 -12 -2 -3 4 0 -1 4 3 1 -1 -3 -0 -0 0 -1 -2 -2 -1 -2 -3 -3 -1 -1 0 -2 1 0 3 3 3 5 1
-2 -10 1 14 -8 2 -1 -1 -6 -5 9 -7 -4 -2 2 25 -9 -2 -1 -1 -0 -0 -0 -2 -3 -4 -1 -0 -1 -2 -3 -2 -1 -2 0 0 1 -1 -2 3 2 -1 0 3
3 16 -1 8 -0 -1 -1 -1 3 3 15 6 -4 -14 1 9 -6 -7 -3 -1 4 2 -3 -4 -4 -4 -4 -2 -2 -1 -1 -2 -1 -0 -0 -2 2 -7 2 -2 -0 1 2 -2
2 5 -10 -5 -5 3 3 20 -9 -5 2 0 -21 -12 3 1 -9 -4 -3 1 -3 -2 -0 -2 -2 -3 -4 -4 -2 -1 -0 -3 -1 -2 -3 -1 -2 -2 4 -3 -4 -3 -0 1
-13 -5 5 0 -8 7 -3 -7 -4 1 -1 6 -8 15 -19 10 6 -1 1 -3 -4 -5 -3 -3 -2 -2 -1 -1 -1 -1 -1 -2 0 -2 1 -0 -2 -1 -5 0 -0 -0 1 -3
-1 8 -5 -2 -0 4 3 -4 -5 -2 0 11 -19 15 -13 26 -8 14 0 -2 -5 -2 -3 -2 -0 -1 -2 -3 -3 -1 -2 -2 -2 -4 -3 -1 -3 2 -1 -1 -4 -4 0 0
-1 2 0 1 -2 -1 -0 4 2 13 13 -12 -4 -2 -16 -0 -13 10 -7 -3 -4 -4 0 0 -2 -2 -3 -4 -4 -4 -3 -4 -4 -2 -3 -4 -6 -3 -3 -0 -2 -3 0 0
-5 22 -3 -4 -7 -13 -10 2 -1 -2 0 -5 -0 -4 10 5 -9 -7 -1 -3 -4 -1 -0 -1 -1 -3 -4 -4 -4 -3 -4 -5 -4 -4 -4 -4 -1 -4 -1 -2 -4 -2 -1 -2
0 12 12 0 0 3 2 1 -4 10 -5 13 -12 -4 -4 3 -8 -9 -4 -6 -5 -3 -3 -0 -2 -4 -4 -3 -4 -3 -3 -4 -3 -1 -4 -5 -1 -3 -2 -2 -4 -3 -3 -5
3 24 -1 -3 5 -2 8 2 4 2 2 1 -10 -4 13 -5 -0 -2 -3 -7 -3 -2 -1 -1 -2 -1 -1 -2 -2 -2 -4 -4 -3 -1 -2 -2 -2 -2 -2 -0 0 2 -5 -1
7 4 5 2 -6 -1 3 -3 0 8 9 2 0 -18 2 1 3 -4 -5 -6 -6 -1 -2 -0 -1 -1 -2 -1 -3 -3 -4 -4 -3 -1 -1 -1 -2 -2 -1 -1 -0 4 -3 -1
-5 3 5 -17 -12 -19 21 -4 -10 12 -17 -12 9 -49 13 -2 2 2 -7 -5 -9 1 -1 -1 -2 -4 0 1 -3 -2 -3 -3 -1 -1 -2 -2 -2 -2 -2 -1 0 3 1 3
9 -4 1 -3 14 19 -7 0 -12 0 21 -17 15 -21 -9 -7 -3 5 7 -7 -5 -1 -1 0 -1 -0 -1 0 -1 -2 -2 -4 -2 -3 -0 -3 -2 -2 -1 -1 1 2 3 0
3 -9 1 -12 -8 14 12 11 7 23 18 -12 -17 -14 6 -9 -13 -2 3 -11 1 -2 -0 1 -1 -2 -0 -1 -1 -2 -0 -4 -1 -3 0 -2 -2 -1 -0 -2 2 -1 -0 -1
-3 -10 19 -0 -2 15 -11 -9 -12 1 -6 6 -18 3 -12 -2 27 -3 8 -9 0 -0 1 -0 -4 -0 1 1 -3 -2 -1 -4 -1 -3 -1 -0 -1 -1 -1 -2 -0 -4 -2 -0
-1 -31 -12 -19 -1 5 11 1 10 12 0 -3 -3 -25 6 -13 4 25 -7 -7 -2 1 -1 -1 -2 3 -1 0 -2 -1 2 -5 -1 -3 -0 -0 -1 -1 -0 -1 -1 -0 1 1
11 -1 8 -23 6 9 4 -20 -7 -9 2 9 7 -23 -1 12 10 -21 29 -14 -3 -1 2 -2 1 2 -2 -1 0 -0 -1 -2 -3 -1 -0 -0 0 -0 -2 -2 -1 -1 -0 1
16 8 12 -10 4 7 -33 -7 -4 19 2 5 6 -9 3 -1 14 -14 5 -12 1 -2 -3 1 1 6 -0 -0 -1 -1 -1 -2 -2 -0 1 -0 -1 -1 -0 -1 1 1 -1 -0
7 9 11 6 2 -15 -8 2 -19 -3 -37 -5 -4 -11 -4 14 -7 -4 -5 6 -2 -3 -1 0 5 2 2 1 -1 -1 -2 -2 -0 -1 0 -1 -1 -2 0 1 2 1 1 2
4 2 20 7 9 -1 -30 -11 29 -4 -47 42 -8 -5 3 -6 -3 4 6 -2 -0 3 2 8 8 1 0 -0 -1 -2 -2 -1 -0 1 -1 -1 -2 -2 -0 -0 1 1 0 0
-4 1 -7 -4 -3 -28 -19 -12 34 11 -65 -5 -1 -1 -3 0 -3 -8 2 3 0 3 2 6 2 1 0 -1 -2 -1 -0 0 0 -1 -1 -1 -2 -1 -0 1 0 0 -0 -1
7 5 -2 8 11 -10 9 6 -3 -6 -3 2 4 0 -7 -4 0 -0 1 4 -2 2 0 3 1 2 -0 -1 -0 -0 1 1 1 -2 -0 -2 -2 -1 0 -0 -1 -0 0 1
-2 -10 -6 16 0 -6 -18 -22 -10 3 2 2 2 -4 -2 -2 -1 2 -2 -1 2 2 3 3 2 1 -1 0 0 1 1 1 -1 -1 -0 -1 -1 -0 1 1 0 -0 -1 0
-6 12 -14 12 -9 2 3 -3 1 1 -5 2 3 -4 -0 -0 2 -3 -3 1 1 2 2 1 1 -1 -0 0 1 1 1 -2 -1 -1 -0 -1 -1 -1 0 0 0 0 0 0
5 10 3 -6 5 -3 -8 -0 1 -4 2 3 -1 -2 -1 1 -3 -4 -0 1 1 1 2 2 0 0 1 1 1 1 -1 -0 1 0 -1 -1 -0 -1 -1 -0 -1 0 1 1
-8 -2 -6 -9 1 8 11 -2 3 -2 3 -1 -1 0 -2 -0 -5 -1 2 2 2 2 1 0 1 1 1 1 1 -0 -1 0 -1 -2 -1 -1 -0 -1 -1 -1 -2 -1 0 1
Height
3102 3104 3103 3106 3110 3111 3111 3110 3111 3112 3112 3108 3108 3107 3110 3110 3107 3108 3107 3100 3096 3094 3092 3090 3090 3089 3087 3087 3085 3084 3083 3083 3082 3082 3080 3079 3079 3078 3079 3079 3079 3080 3082 3082
3099 3097 3101 3105 3104 3105 3105 3106 3106 3107 3106 3103 3103 3102 3103 3101 3100 3099 3100 3096 3094 3091 3089 3087 3086 3084 3083 3081 3079 3078 3076 3075 3074 3073 3072 3072 3071 3070 3070 3071 3070 3072 3072 3074
3095 3096 3095 3099 3098 3100 3100 3100 3101 3103 3101 3099 3095 3094 3090 3089 3090 3092 3093 3092 3092 3088 3086 3084 3082 3080 3077 3075 3073 3070 3068 3067 3066 3065 3065 3064 3064 3063 3064 3063 3063 3063 3064 3065
3089 3092 3089 3092 3094 3096 3096 3096 3096 3097 3098 3094 3090 3087 3087 3085 3082 3085 3085 3086 3087 3086 3083 3080 3078 3076 3073 3071 3069 3066 3064 3061 3061 3060 3058 3057 3056 3057 3057 3055 3055 3055 3056 3057
3082 3083 3084 3085 3087 3091 3093 3089 3092 3094 3092 3090 3088 3087 3079 3079 3078 3081 3081 3081 3082 3081 3079 3076 3075 3073 3071 3068 3066 3064 3061 3058 3056 3054 3052 3050 3049 3050 3049 3049 3050 3048 3048 3048
3078 3076 3079 3081 3083 3084 3087 3088 3088 3090 3090 3082 3079 3080 3071 3070 3075 3078 3079 3078 3076 3077 3075 3073 3071 3070 3068 3066 3064 3062 3059 3056 3053 3050 3047 3045 3043 3042 3041 3041 3041 3041 3040 3040
3071 3071 3073 3074 3077 3080 3082 3086 3083 3079 3078 3073 3070 3073 3069 3069 3071 3075 3073 3073 3072 3071 3071 3069 3068 3066 3064 3062 3060 3058 3056 3053 3050 3047 3044 3041 3038 3036 3034 3033 3032 3033 3031 3031
3062 3065 3067 3065 3068 3071 3075 3079 3076 3069 3064 3062 3066 3064 3063 3064 3064 3068 3068 3068 3067 3067 3067 3066 3064 3062 3061 3058 3056 3054 3052 3050 3047 3044 3041 3038 3036 3034 3030 3029 3026 3025 3024 3022
3054 3056 3057 3060 3062 3067 3069 3071 3075 3072 3069 3069 3064 3059 3056 3057 3059 3063 3062 3063 3063 3062 3062 3061 3060 3059 3057 3056 3054 3052 3049 3047 3044 3039 3036 3034 3031 3029 3027 3025 3022 3019 3019 3017
3050 3052 3053 3054 3058 3060 3062 3068 3071 3071 3065 3060 3053 3051 3048 3048 3052 3055 3056 3058 3058 3057 3058 3057 3056 3055 3054 3053 3051 3049 3047 3044 3040 3036 3033 3030 3028 3025 3022 3019 3018 3016 3015 3013
3046 3047 3049 3049 3050 3053 3058 3060 3062 3063 3061 3057 3049 3045 3046 3047 3048 3049 3051 3052 3053 3053 3053 3052 3051 3051 3050 3048 3047 3045 3042 3040 3036 3032 3029 3027 3024 3021 3019 3016 3013 3010 3008 3008
3041 3042 3042 3043 3047 3049 3050 3050 3055 3056 3054 3055 3051 3042 3045 3047 3047 3047 3045 3046 3047 3047 3046 3046 3046 3045 3045 3043 3042 3040 3038 3035 3032 3029 3026 3023 3021 3017 3014 3012 3010 3007 3006 3004
3035 3036 3039 3041 3043 3042 3041 3043 3045 3047 3048 3044 3047 3041 3040 3043 3044 3045 3043 3039 3040 3040 3040 3040 3040 3040 3040 3039 3038 3036 3033 3031 3028 3025 3022 3020 3017 3015 3012 3010 3007 3005 3003 3002
3029 3032 3034 3034 3035 3035 3034 3036 3038 3039 3039 3037 3036 3037 3039 3037 3039 3040 3037 3034 3034 3033 3033 3034 3033 3035 3035 3034 3032 3031 3029 3027 3024 3021 3019 3017 3014 3012 3010 3008 3006 3004 3002 3000
3029 3030 3032 3031 3030 3028 3029 3032 3032 3030 3031 3033 3031 3033 3033 3034 3034 3029 3030 3025 3027 3027 3026 3028 3026 3027 3029 3029 3028 3026 3024 3023 3020 3018 3016 3014 3012 3010 3008 3006 3004 3002 3001 2999
3024 3024 3027 3022 3022 3023 3022 3025 3022 3025 3024 3024 3026 3024 3027 3029 3028 3027 3020 3017 3021 3019 3020 3020 3021 3022 3023 3023 3023 3021 3020 3018 3016 3014 3013 3011 3009 3007 3006 3004 3003 3002 3000 2998
3018 3018 3019 3013 3019 3018 3016 3007 3016 3015 3014 3018 3016 3018 3019 3019 3020 3016 3016 3012 3013 3013 3014 3013 3015 3016 3017 3018 3017 3017 3016 3014 3013 3011 3010 3009 3007 3006 3005 3004 3003 3001 2999 2997
3006 3009 3011 3007 3011 3005 3002 3006 3007 3006 3007 3008 3009 3009 3010 3011 3013 3010 3010 3007 3007 3006 3007 3007 3009 3010 3011 3012 3012 3012 3011 3011 3010 3009 3008 3007 3006 3005 3004 3003 3002 3000 2998 2996
3003 3004 3004 3003 3000 2998 2999 2999 3000 3000 2997 3000 3002 3002 3003 3005 3001 3000 3001 3000 3000 3000 3001 3003 3004 3005 3006 3007 3008 3007 3007 3007 3007 3007 3007 3006 3005 3004 3003 3002 3000 2998 2996 2994
2994 2997 3000 2999 2995 2990 2989 2995 2996 2992 2988 2993 2993 2993 2996 2993 2993 2994 2993 2992 2992 2994 2996 2997 2997 3000 3002 3003 3003 3003 3004 3004 3005 3005 3005 3004 3004 3003 3002 3001 2999 2997 2995 2993
2986 2988 2988 2989 2989 2985 2981 2988 2989 2991 2985 2985 2986 2986 2986 2986 2987 2986 2984 2986 2987 2989 2990 2992 2994 2996 2997 2998 2999 3000 3001 3002 3003 3004 3003 3003 3003 3002 3001 2999 2997 2995 2993 2991
2981 2982 2981 2982 2982 2980 2977 2978 2980 2981 2980 2979 2979 2980 2979 2979 2980 2979 2980 2981 2981 2983 2986 2988 2990 2992 2993 2994 2995 2997 2999 3000 3001 3002 3002 3002 3001 3000 2999 2997 2995 2993 2991 2989
2974 2975 2976 2977 2973 2971 2970 2973 2973 2973 2974 2974 2975 2974 2974 2974 2975 2974 2974 2976 2977 2979 2981 2984 2986 2988 2989 2991 2993 2995 2997 2998 3000 3000 3000 3000 3000 2999 2997 2995 2993 2991 2989 2988
2967 2968 2967 2970 2966 2967 2966 2967 2968 2970 2970 2969 2969 2968 2969 2969 2970 2970 2970 2971 2972 2974 2977 2979 2982 2984 2986 2988 2990 2993 2995 2997 2998 2999 2999 2998 2998 2997 2995 2993 2991 2990 2988 2986
2962 2961 2959 2960 2962 2960 2959 2961 2962 2963 2964 2964 2964 2964 2965 2964 2965 2965 2966 2967 2968 2971 2973 2975 2977 2980 2982 2985 2988 2991 2993 2995 2996 2997 2998 2997 2997 2995 2993 2991 2990 2988 2986 2984
2957 2956 2956 2955 2954 2952 2953 2955 2956 2957 2958 2958 2958 2959 2960 2960 2960 2961 2961 2962 2964 2966 2968 2971 2974 2976 2979 2983 2986 2989 2991 2993 2995 2996 2996 2996 2995 2993 2991 2990 2988 2986 2984 2981